Location: Sobotiste
(48.7170°N, 17.4000°E)
Time: 06:15:43
(UTC+02:00)

METEOR M2 - Pass Details

Date: 19 March 2026
Orbit: 817 x 824 km, 98.5° (Epoch: 17 April)

Event Time Altitude Azimuth Distance (km) Brightness Sun altitude
Rises 02:36:43 0° 31° (NNE) 3,372 ? -31.1°
Reaches altitude 10° 02:40:41 10° 61° (ENE) 2,431 ? -30.6°
Maximum altitude 02:42:54 12° 85° (E) 2,255 ? -30.3°
Drops below altitude 10° 02:45:06 10° 110° (ESE) 2,423 ? -30.0°
Sets 02:49:01 0° 139° (SE) 3,348 ? -29.5°
